| time (UTC) | temp C | wind direction | speed KPH | gust KPH | rain 1hr cm | rain 24hr cm | rain mn cm | humidity % | barometer mb |
| 20260510100705 | 10 | 212 | 1.6 | 1.6 | 0.00 | 0.00 | 0.00 | 99 | 1008.8 |
| 20260510100203 | 10 | 213 | 1.6 | 1.6 | 0.00 | 0.00 | 0.00 | 99 | 1008.6 |
| 20260510095658 | 10 | 210 | 1.6 | 1.6 | 0.00 | 0.00 | 0.00 | 99 | 1008.4 |
| 20260510095153 | 10 | 210 | 0.0 | 0.0 | 0.00 | 0.00 | 0.00 | 99 | 1008.3 |
| 20260510094652 | 10 | 210 | 0.0 | 0.0 | 0.00 | 0.00 | 0.00 | 99 | 1008.3 |
| 20260510094148 | 10 | 211 | 0.0 | 0.0 | 0.00 | 0.00 | 0.00 | 99 | 1008.2 |
| 20260510093644 | 10 | 211 | 0.0 | 0.0 | 0.00 | 0.00 | 0.00 | 99 | 1008.3 |
| 20260510093142 | 10 | 211 | 0.0 | 0.0 | 0.00 | 0.00 | 0.00 | 99 | 1008.0 |
| 20260510092638 | 10 | 211 | 0.0 | 0.0 | 0.00 | 0.00 | 0.00 | 99 | 1008.0 |
| 20260510092133 | 10 | 211 | 0.0 | 0.0 | 0.00 | 0.00 | 0.00 | 99 | 1007.9 |
| 20260510091629 | 10 | 211 | 0.0 | 0.0 | 0.00 | 0.00 | 0.00 | 99 | 1007.8 |
| 20260510091126 | 10 | 211 | 0.0 | 0.0 | 0.00 | 0.00 | 0.00 | 99 | 1007.5 |
| 20260510090623 | 10 | 211 | 0.0 | 0.0 | 0.00 | 0.00 | 0.00 | 99 | 1007.9 |
| 20260510090119 | 10 | 211 | 0.0 | 0.0 | 0.00 | 0.00 | 0.00 | 99 | 1008.3 |
| 20260510085614 | 10 | 211 | 0.0 | 0.0 | 0.00 | 0.00 | 0.00 | 99 | 1008.2 |
| 20260510085109 | 10 | 211 | 1.6 | 1.6 | 0.00 | 0.00 | 0.00 | 99 | 1008.1 |
| 20260510084606 | 10 | 211 | 1.6 | 1.6 | 0.00 | 0.00 | 0.00 | 99 | 1008.2 |
| 20260510084103 | 10 | 211 | 1.6 | 1.6 | 0.00 | 0.00 | 0.00 | 99 | 1008.4 |
| 20260510083559 | 10 | 212 | 3.2 | 3.2 | 0.00 | 0.00 | 0.00 | 99 | 1008.5 |
| 20260510083055 | 10 | 205 | 1.6 | 1.6 | 0.00 | 0.00 | 0.00 | 99 | 1008.2 |
| 20260510082553 | 10 | 205 | 1.6 | 1.6 | 0.00 | 0.00 | 0.00 | 99 | 1008.3 |
| 20260510082048 | 10 | 205 | 3.2 | 3.2 | 0.00 | 0.00 | 0.00 | 99 | 1008.1 |
| 20260510081543 | 10 | 197 | 0.0 | 1.6 | 0.00 | 0.00 | 0.00 | 99 | 1008.0 |
| 20260510081039 | 10 | 187 | 1.6 | 1.6 | 0.00 | 0.00 | 0.00 | 99 | 1007.6 |
| 20260510080538 | 10 | 186 | 1.6 | 1.6 | 0.00 | 0.00 | 0.00 | 99 | 1007.8 |
| 20260510080036 | 10 | 187 | 0.0 | 0.0 | 0.00 | 0.00 | 0.00 | 99 | 1007.9 |
| 20260510075533 | 10 | 180 | 1.6 | 1.6 | 0.00 | 0.00 | 0.00 | 99 | 1008.0 |
| 20260510075030 | 10 | 164 | 1.6 | 1.6 | 0.00 | 0.00 | 0.00 | 99 | 1008.3 |
| 20260510074527 | 10 | 153 | 0.0 | 0.0 | 0.00 | 0.00 | 0.00 | 99 | 1008.5 |
| 20260510074022 | 10 | 145 | 1.6 | 3.2 | 0.00 | 0.00 | 0.00 | 99 | 1008.7 |
| 20260510073519 | 10 | 211 | 0.0 | 1.6 | 0.00 | 0.00 | 0.00 | 99 | 1008.9 |
| 20260510073016 | 11 | 211 | 0.0 | 0.0 | 0.00 | 0.00 | 0.00 | 99 | 1009.1 |
| 20260510072512 | 11 | 211 | 0.0 | 0.0 | 0.00 | 0.00 | 0.00 | 99 | 1009.3 |
| 20260510072008 | 11 | 211 | 0.0 | 0.0 | 0.00 | 0.00 | 0.00 | 99 | 1009.2 |
| 20260510071504 | 11 | 211 | 0.0 | 1.6 | 0.00 | 0.00 | 0.00 | 99 | 1009.1 |
| 20260510071003 | 11 | 211 | 6.4 | 8.0 | 0.00 | 0.00 | 0.00 | 99 | 1009.4 |
| 20260510070459 | 10 | 203 | 3.2 | 3.2 | 0.00 | 0.00 | 0.00 | 99 | 1009.1 |
| 20260510065955 | 10 | 171 | 0.0 | 0.0 | 0.00 | 0.00 | 0.00 | 99 | 1009.1 |
| 20260510065452 | 10 | 170 | 0.0 | 0.0 | 0.00 | 0.00 | 0.00 | 99 | 1009.2 |
| 20260510064948 | 10 | 171 | 0.0 | 0.0 | 0.00 | 0.00 | 0.00 | 99 | 1008.9 |
| 20260510064445 | 10 | 180 | 0.0 | 0.0 | 0.00 | 0.00 | 0.00 | 99 | 1009.0 |
| 20260510063942 | 10 | 180 | 0.0 | 1.6 | 0.00 | 0.00 | 0.00 | 99 | 1008.8 |
| 20260510063438 | 10 | 180 | 0.0 | 0.0 | 0.00 | 0.00 | 0.00 | 99 | 1008.8 |
| 20260510062937 | 10 | 180 | 0.0 | 0.0 | 0.00 | 0.00 | 0.00 | 99 | 1008.7 |
| 20260510062436 | 10 | 180 | 0.0 | 0.0 | 0.00 | 0.00 | 0.00 | 99 | 1008.5 |
| 20260510061932 | 10 | 180 | 0.0 | 0.0 | 0.00 | 0.00 | 0.00 | 99 | 1008.8 |
| 20260510061429 | 10 | 180 | 0.0 | 0.0 | 0.00 | 0.00 | 0.00 | 99 | 1008.5 |
| 20260510060925 | 10 | 180 | 0.0 | 0.0 | 0.00 | 0.00 | 0.00 | 99 | 1008.7 |
| 20260510060422 | 10 | 180 | 0.0 | 0.0 | 0.00 | 0.00 | 0.00 | 99 | 1008.7 |
| 20260510055918 | 10 | 180 | 0.0 | 0.0 | 0.00 | 0.00 | 0.00 | 99 | 1008.8 |
| 20260510055414 | 10 | 180 | 1.6 | 1.6 | 0.00 | 0.00 | 0.00 | 99 | 1008.7 |
| 20260510054907 | 10 | 180 | 0.0 | 0.0 | 0.00 | 0.00 | 0.00 | 99 | 1008.7 |
| 20260510054402 | 10 | 180 | 0.0 | 0.0 | 0.00 | 0.00 | 0.00 | 99 | 1008.5 |
| 20260510053857 | 10 | 180 | 0.0 | 0.0 | 0.00 | 0.00 | 0.00 | 99 | 1008.1 |
| 20260510053353 | 10 | 180 | 0.0 | 0.0 | 0.00 | 0.00 | 0.00 | 99 | 1008.4 |
| 20260510052850 | 10 | 189 | 0.0 | 0.0 | 0.00 | 0.00 | 0.00 | 99 | 1008.6 |
| 20260510052345 | 10 | 182 | 0.0 | 0.0 | 0.00 | 0.00 | 0.00 | 99 | 1008.5 |
| 20260510051842 | 10 | 205 | 1.6 | 1.6 | 0.00 | 0.00 | 0.00 | 99 | 1008.5 |
| 20260510051339 | 10 | 195 | 1.6 | 1.6 | 0.00 | 0.00 | 0.00 | 99 | 1008.5 |
| 20260510050835 | 10 | 195 | 0.0 | 0.0 | 0.00 | 0.00 | 0.00 | 99 | 1008.2 |
| 20260510050332 | 10 | 195 | 0.0 | 0.0 | 0.00 | 0.00 | 0.00 | 99 | 1008.7 |
| 20260510045829 | 11 | 193 | 0.0 | 0.0 | 0.00 | 0.00 | 0.00 | 99 | 1008.5 |
| 20260510045326 | 11 | 201 | 1.6 | 3.2 | 0.00 | 0.00 | 0.00 | 99 | 1008.7 |
| 20260510044823 | 10 | 197 | 1.6 | 1.6 | 0.00 | 0.00 | 0.00 | 99 | 1008.5 |
| 20260510044320 | 10 | 180 | 0.0 | 0.0 | 0.00 | 0.00 | 0.00 | 99 | 1008.5 |
| 20260510043816 | 10 | 180 | 0.0 | 0.0 | 0.00 | 0.00 | 0.00 | 99 | 1008.3 |
| 20260510043312 | 10 | 180 | 0.0 | 0.0 | 0.00 | 0.00 | 0.00 | 99 | 1008.5 |
| 20260510042810 | 10 | 179 | 0.0 | 0.0 | 0.00 | 0.00 | 0.00 | 99 | 1008.4 |
| 20260510042307 | 10 | 180 | 0.0 | 0.0 | 0.00 | 0.00 | 0.00 | 99 | 1008.3 |
| 20260510041802 | 10 | 180 | 0.0 | 0.0 | 0.00 | 0.00 | 0.00 | 99 | 1008.5 |
| 20260510041300 | 10 | 179 | 0.0 | 0.0 | 0.00 | 0.00 | 0.00 | 99 | 1008.6 |
| 20260510040757 | 10 | 180 | 0.0 | 0.0 | 0.00 | 0.00 | 0.00 | 99 | 1008.5 |
| 20260510040254 | 10 | 180 | 0.0 | 0.0 | 0.00 | 0.00 | 0.00 | 99 | 1008.6 |
| 20260510035749 | 10 | 180 | 0.0 | 0.0 | 0.00 | 0.76 | 0.76 | 99 | 1008.6 |
| 20260510035245 | 11 | 180 | 0.0 | 0.0 | 0.00 | 0.76 | 0.76 | 99 | 1008.5 |
| 20260510034741 | 11 | 187 | 0.0 | 0.0 | 0.00 | 0.76 | 0.76 | 99 | 1008.3 |
| 20260510034239 | 11 | 188 | 0.0 | 0.0 | 0.00 | 0.76 | 0.76 | 99 | 1008.3 |
| 20260510033734 | 11 | 188 | 0.0 | 0.0 | 0.00 | 0.76 | 0.76 | 99 | 1008.3 |
| 20260510033227 | 11 | 168 | 3.2 | 3.2 | 0.00 | 0.76 | 0.76 | 99 | 1008.4 |
| 20260510032723 | 11 | 179 | 1.6 | 1.6 | 0.00 | 0.76 | 0.76 | 99 | 1008.5 |
| 20260510032219 | 11 | 189 | 0.0 | 0.0 | 0.00 | 0.76 | 0.76 | 99 | 1008.5 |
| 20260510031714 | 11 | 192 | 0.0 | 0.0 | 0.00 | 0.76 | 0.76 | 99 | 1008.5 |
| 20260510031211 | 10 | 201 | 1.6 | 1.6 | 0.00 | 0.76 | 0.76 | 99 | 1008.5 |
| 20260510030710 | 10 | 201 | 0.0 | 0.0 | 0.00 | 0.76 | 0.76 | 99 | 1008.8 |
| 20260510030208 | 10 | 201 | 0.0 | 1.6 | 0.00 | 0.76 | 0.76 | 99 | 1008.7 |
| 20260510025705 | 10 | 201 | 0.0 | 0.0 | 0.00 | 0.76 | 0.76 | 99 | 1008.8 |
| 20260510025202 | 10 | 201 | 0.0 | 0.0 | 0.00 | 0.76 | 0.76 | 99 | 1008.5 |
| 20260510024659 | 10 | 201 | 0.0 | 0.0 | 0.00 | 0.76 | 0.76 | 99 | 1008.7 |
| 20260510024155 | 10 | 201 | 0.0 | 0.0 | 0.00 | 0.76 | 0.76 | 99 | 1008.6 |
| 20260510023651 | 10 | 201 | 0.0 | 1.6 | 0.00 | 0.76 | 0.76 | 99 | 1008.5 |
| 20260510023148 | 10 | 201 | 0.0 | 0.0 | 0.00 | 0.76 | 0.76 | 99 | 1008.5 |
| 20260510022643 | 11 | 201 | 0.0 | 0.0 | 0.00 | 0.76 | 0.76 | 99 | 1008.5 |
| 20260510022139 | 10 | 201 | 0.0 | 0.0 | 0.00 | 0.76 | 0.76 | 99 | 1008.5 |
| 20260510021634 | 10 | 201 | 1.6 | 1.6 | 0.00 | 0.76 | 0.76 | 99 | 1008.6 |
| 20260510021132 | 10 | 201 | 0.0 | 1.6 | 0.00 | 0.76 | 0.76 | 99 | 1008.6 |
| 20260510020626 | 10 | 201 | 0.0 | 0.0 | 0.00 | 0.76 | 0.76 | 99 | 1008.4 |
| 20260510020121 | 10 | 201 | 0.0 | 1.6 | 0.00 | 0.76 | 0.76 | 99 | 1008.3 |
| 20260510015618 | 10 | 201 | 0.0 | 0.0 | 0.00 | 0.76 | 0.76 | 99 | 1008.3 |
| 20260510015114 | 10 | 201 | 0.0 | 1.6 | 0.00 | 0.76 | 0.76 | 99 | 1008.4 |
| 20260510014610 | 10 | 201 | 0.0 | 0.0 | 0.00 | 0.76 | 0.76 | 99 | 1008.8 |
| 20260510014108 | 10 | 201 | 0.0 | 0.0 | 0.00 | 0.76 | 0.76 | 99 | 1008.6 |
| 20260510013602 | 10 | 201 | 0.0 | 0.0 | 0.00 | 0.76 | 0.76 | 99 | 1008.6 |
| 20260510013058 | 10 | 201 | 0.0 | 0.0 | 0.00 | 0.76 | 0.76 | 99 | 1008.8 |
| 20260510012557 | 10 | 201 | 0.0 | 0.0 | 0.00 | 0.76 | 0.76 | 99 | 1008.5 |
| 20260510012054 | 10 | 201 | 0.0 | 0.0 | 0.00 | 0.76 | 0.76 | 99 | 1008.9 |
| 20260510011553 | 10 | 201 | 0.0 | 0.0 | 0.00 | 0.76 | 0.76 | 99 | 1008.4 |
| 20260510011050 | 10 | 201 | 0.0 | 0.0 | 0.00 | 0.76 | 0.76 | 99 | 1008.5 |
| 20260510010546 | 10 | 201 | 0.0 | 0.0 | 0.00 | 0.76 | 0.76 | 99 | 1008.4 |
| 20260510010044 | 10 | 201 | 0.0 | 0.0 | 0.00 | 0.76 | 0.76 | 99 | 1008.4 |
| 20260510005539 | 10 | 201 | 0.0 | 0.0 | 0.00 | 0.76 | 0.76 | 99 | 1008.4 |
| 20260510005037 | 10 | 201 | 0.0 | 0.0 | 0.00 | 0.76 | 0.76 | 99 | 1008.8 |
| 20260510004534 | 10 | 201 | 0.0 | 0.0 | 0.00 | 0.76 | 0.76 | 99 | 1008.6 |
| 20260510004032 | 10 | 201 | 0.0 | 0.0 | 0.00 | 0.76 | 0.76 | 99 | 1008.4 |
| 20260510003529 | 10 | 201 | 0.0 | 0.0 | 0.00 | 0.76 | 0.76 | 99 | 1008.3 |
| 20260510003024 | 10 | 201 | 0.0 | 0.0 | 0.00 | 0.76 | 0.76 | 99 | 1008.2 |
| 20260510002520 | 10 | 201 | 0.0 | 1.6 | 0.00 | 0.76 | 0.76 | 99 | 1008.4 |
| 20260510002017 | 10 | 201 | 0.0 | 1.6 | 0.00 | 0.76 | 0.76 | 99 | 1008.0 |
| 20260510001514 | 10 | 201 | 0.0 | 0.0 | 0.00 | 0.76 | 0.76 | 99 | 1007.9 |
| 20260510001012 | 11 | 201 | 0.0 | 0.0 | 0.00 | 0.76 | 0.76 | 99 | 1008.0 |
| 20260510000507 | 11 | 201 | 0.0 | 0.0 | 0.00 | 0.76 | 0.76 | 99 | 1008.1 |
| 20260510000004 | 11 | 200 | 0.0 | 0.0 | 0.00 | 0.76 | 0.76 | 99 | 1008.2 |
| 20260509235501 | 11 | 200 | 0.0 | 0.0 | 0.00 | 0.76 | 0.76 | 99 | 1008.2 |
| 20260509234957 | 11 | 200 | 0.0 | 0.0 | 0.00 | 0.76 | 0.76 | 99 | 1008.3 |
| 20260509234454 | 11 | 199 | 0.0 | 0.0 | 0.00 | 0.76 | 0.76 | 99 | 1008.0 |
| 20260509233952 | 11 | 199 | 0.0 | 0.0 | 0.00 | 0.76 | 0.76 | 99 | 1008.0 |
| 20260509233449 | 11 | 199 | 0.0 | 0.0 | 0.00 | 0.76 | 0.76 | 99 | 1007.7 |
| 20260509232945 | 11 | 199 | 0.0 | 0.0 | 0.00 | 0.76 | 0.76 | 99 | 1007.9 |
| 20260509232443 | 11 | 199 | 0.0 | 0.0 | 0.00 | 0.76 | 0.76 | 99 | 1007.7 |
| 20260509231938 | 11 | 199 | 0.0 | 0.0 | 0.00 | 0.76 | 0.76 | 99 | 1007.4 |
| 20260509231435 | 11 | 199 | 0.0 | 0.0 | 0.00 | 0.76 | 0.76 | 99 | 1007.6 |
| 20260509230934 | 11 | 199 | 0.0 | 0.0 | 0.00 | 0.76 | 0.76 | 99 | 1007.6 |
| 20260509230430 | 11 | 199 | 0.0 | 0.0 | 0.00 | 0.76 | 0.76 | 99 | 1007.7 |
| 20260509225926 | 11 | 199 | 0.0 | 1.6 | 0.00 | 0.76 | 0.76 | 99 | 1007.3 |
| 20260509225422 | 11 | 199 | 0.0 | 0.0 | 0.00 | 0.76 | 0.76 | 99 | 1007.4 |
| 20260509224919 | 11 | 199 | 0.0 | 1.6 | 0.00 | 0.76 | 0.76 | 99 | 1007.6 |
| 20260509224414 | 11 | 199 | 1.6 | 1.6 | 0.00 | 0.76 | 0.76 | 99 | 1007.6 |
| 20260509223912 | 11 | 199 | 1.6 | 1.6 | 0.00 | 0.76 | 0.76 | 99 | 1007.5 |
| 20260509223408 | 11 | 200 | 1.6 | 1.6 | 0.00 | 0.76 | 0.76 | 99 | 1007.5 |
| 20260509222905 | 11 | 189 | 0.0 | 0.0 | 0.00 | 0.76 | 0.76 | 99 | 1007.7 |
| 20260509222401 | 11 | 189 | 0.0 | 1.6 | 0.00 | 0.76 | 0.76 | 99 | 1007.5 |
| 20260509221856 | 11 | 188 | 0.0 | 0.0 | 0.00 | 0.76 | 0.76 | 99 | 1007.8 |
| 20260509221354 | 11 | 188 | 0.0 | 0.0 | 0.00 | 0.76 | 0.76 | 99 | 1007.6 |
| 20260509220849 | 11 | 188 | 0.0 | 0.0 | 0.00 | 0.76 | 0.76 | 99 | 1008.0 |
| 20260509220345 | 11 | 188 | 0.0 | 0.0 | 0.00 | 0.76 | 0.76 | 99 | 1007.8 |
| 20260509215841 | 11 | 192 | 0.0 | 1.6 | 0.00 | 0.76 | 0.76 | 99 | 1007.9 |
| 20260509215337 | 11 | 179 | 0.0 | 0.0 | 0.00 | 0.76 | 0.76 | 99 | 1007.8 |
| 20260509214835 | 11 | 179 | 0.0 | 0.0 | 0.00 | 0.76 | 0.76 | 99 | 1008.0 |
| 20260509214332 | 10 | 179 | 0.0 | 0.0 | 0.00 | 0.76 | 0.76 | 99 | 1008.0 |
| 20260509213829 | 11 | 179 | 0.0 | 0.0 | 0.00 | 0.76 | 0.76 | 99 | 1008.1 |
| 20260509213324 | 11 | 179 | 0.0 | 0.0 | 0.00 | 0.76 | 0.76 | 99 | 1008.0 |
| 20260509212822 | 10 | 179 | 0.0 | 0.0 | 0.00 | 0.76 | 0.76 | 99 | 1008.1 |
| 20260509212320 | 10 | 178 | 0.0 | 0.0 | 0.00 | 0.76 | 0.76 | 99 | 1008.1 |
| 20260509211815 | 10 | 196 | 0.0 | 0.0 | 0.00 | 0.76 | 0.76 | 99 | 1008.2 |
| 20260509211311 | 10 | 196 | 0.0 | 0.0 | 0.00 | 0.76 | 0.76 | 99 | 1008.4 |
| 20260509210808 | 10 | 196 | 0.0 | 0.0 | 0.00 | 0.76 | 0.76 | 99 | 1008.4 |
| 20260509210306 | 10 | 196 | 0.0 | 0.0 | 0.00 | 0.76 | 0.76 | 99 | 1008.3 |
| 20260509205805 | 10 | 196 | 0.0 | 0.0 | 0.00 | 0.76 | 0.76 | 99 | 1008.3 |
| 20260509205300 | 10 | 196 | 0.0 | 0.0 | 0.00 | 0.76 | 0.76 | 99 | 1008.5 |
| 20260509204756 | 10 | 196 | 0.0 | 0.0 | 0.00 | 0.76 | 0.76 | 99 | 1008.4 |
| 20260509204253 | 10 | 195 | 0.0 | 0.0 | 0.00 | 0.76 | 0.76 | 99 | 1008.7 |
| 20260509203749 | 10 | 196 | 0.0 | 0.0 | 0.00 | 0.76 | 0.76 | 99 | 1008.7 |
| 20260509203247 | 10 | 196 | 0.0 | 0.0 | 0.00 | 0.76 | 0.76 | 99 | 1008.7 |
| 20260509202742 | 10 | 196 | 0.0 | 0.0 | 0.00 | 0.76 | 0.76 | 99 | 1009.0 |
| 20260509202238 | 10 | 196 | 0.0 | 0.0 | 0.00 | 0.76 | 0.76 | 99 | 1009.0 |
| 20260509201733 | 10 | 196 | 0.0 | 0.0 | 0.00 | 0.76 | 0.76 | 99 | 1009.0 |
| 20260509201230 | 10 | 196 | 1.6 | 1.6 | 0.00 | 0.76 | 0.76 | 99 | 1008.9 |
| 20260509200726 | 10 | 196 | 0.0 | 0.0 | 0.00 | 0.76 | 0.76 | 99 | 1009.0 |
| 20260509200221 | 10 | 196 | 1.6 | 1.6 | 0.00 | 0.76 | 0.76 | 99 | 1008.9 |
| 20260509195717 | 10 | 196 | 0.0 | 0.0 | 0.00 | 0.76 | 0.76 | 99 | 1009.0 |
| 20260509195213 | 10 | 196 | 0.0 | 0.0 | 0.00 | 0.76 | 0.76 | 99 | 1009.2 |
| 20260509194707 | 10 | 196 | 0.0 | 0.0 | 0.00 | 0.76 | 0.76 | 99 | 1009.1 |
| 20260509194204 | 10 | 196 | 0.0 | 1.6 | 0.00 | 0.76 | 0.76 | 99 | 1009.1 |
| 20260509193700 | 10 | 196 | 1.6 | 1.6 | 0.00 | 0.76 | 0.76 | 99 | 1009.1 |
| 20260509193155 | 10 | 196 | 1.6 | 1.6 | 0.00 | 0.76 | 0.76 | 99 | 1009.0 |
| 20260509192652 | 10 | 195 | 0.0 | 0.0 | 0.00 | 0.76 | 0.76 | 99 | 1009.1 |
| 20260509192147 | 10 | 195 | 0.0 | 0.0 | 0.00 | 0.76 | 0.76 | 99 | 1009.0 |
| 20260509191648 | 10 | 195 | 0.0 | 0.0 | 0.00 | 0.76 | 0.76 | 99 | 1009.3 |
| 20260509191144 | 10 | 195 | 0.0 | 1.6 | 0.00 | 0.76 | 0.76 | 99 | 1009.2 |
| 20260509190641 | 10 | 179 | 0.0 | 0.0 | 0.00 | 0.76 | 0.76 | 99 | 1009.3 |
| 20260509190138 | 10 | 180 | 1.6 | 1.6 | 0.00 | 0.76 | 0.76 | 99 | 1009.3 |
| 20260509185636 | 10 | 179 | 0.0 | 1.6 | 0.00 | 0.76 | 0.76 | 99 | 1009.1 |
| 20260509185132 | 10 | 190 | 0.0 | 1.6 | 0.18 | 0.76 | 0.76 | 99 | 1009.2 |
| 20260509184630 | 10 | 188 | 0.0 | 0.0 | 0.18 | 0.76 | 0.76 | 99 | 1009.3 |
| 20260509184126 | 10 | 206 | 1.6 | 1.6 | 0.13 | 0.74 | 0.74 | 99 | 1009.3 |
| 20260509183622 | 10 | 196 | 0.0 | 0.0 | 0.13 | 0.74 | 0.74 | 99 | 1009.3 |
| 20260509183117 | 10 | 195 | 0.0 | 0.0 | 0.18 | 0.71 | 0.71 | 99 | 1009.5 |
| 20260509182614 | 10 | 195 | 1.6 | 1.6 | 0.18 | 0.71 | 0.71 | 99 | 1009.6 |
| 20260509182111 | 10 | 195 | 1.6 | 1.6 | 0.00 | 0.69 | 0.69 | 99 | 1009.5 |
| 20260509181609 | 10 | 194 | 1.6 | 1.6 | 0.18 | 0.69 | 0.69 | 99 | 1009.3 |
| 20260509181106 | 10 | 192 | 0.0 | 0.0 | 0.00 | 0.66 | 0.66 | 99 | 1009.5 |
| 20260509180602 | 10 | 192 | 0.0 | 0.0 | 0.13 | 0.66 | 0.66 | 99 | 1009.6 |
| 20260509180100 | 10 | 192 | 0.0 | 0.0 | 0.13 | 0.66 | 0.66 | 99 | 1009.5 |
| 20260509175555 | 10 | 192 | 0.0 | 1.6 | 0.18 | 0.64 | 0.64 | 99 | 1009.6 |
| 20260509175052 | 10 | 192 | 0.0 | 0.0 | 0.18 | 0.64 | 0.64 | 99 | 1009.5 |
| 20260509174548 | 10 | 192 | 0.0 | 0.0 | 0.00 | 0.61 | 0.61 | 99 | 1009.5 |
| 20260509174043 | 9 | 192 | 0.0 | 1.6 | 0.00 | 0.61 | 0.61 | 99 | 1009.4 |
| 20260509173538 | 10 | 190 | 0.0 | 0.0 | 0.13 | 0.61 | 0.61 | 99 | 1009.4 |
| 20260509173035 | 10 | 190 | 0.0 | 1.6 | 0.13 | 0.61 | 0.61 | 99 | 1009.5 |
| 20260509172532 | 9 | 190 | 0.0 | 0.0 | 0.00 | 0.58 | 0.58 | 99 | 1009.5 |
| 20260509172027 | 9 | 190 | 0.0 | 1.6 | 0.00 | 0.58 | 0.58 | 99 | 1009.7 |
| 20260509171524 | 9 | 190 | 1.6 | 1.6 | 0.00 | 0.58 | 0.58 | 99 | 1009.8 |
| 20260509171020 | 9 | 186 | 1.6 | 1.6 | 0.00 | 0.58 | 0.58 | 99 | 1009.9 |
| 20260509170516 | 9 | 190 | 0.0 | 0.0 | 0.18 | 0.58 | 0.58 | 99 | 1009.8 |
| 20260509170012 | 9 | 66 | 1.6 | 1.6 | 0.18 | 0.58 | 0.58 | 99 | 1010.1 |
| 20260509165510 | 9 | 206 | 0.0 | 0.0 | 0.00 | 0.56 | 0.56 | 99 | 1010.1 |
| 20260509165006 | 9 | 207 | 0.0 | 1.6 | 0.00 | 0.56 | 0.56 | 99 | 1010.1 |
| 20260509164503 | 9 | 209 | 0.0 | 0.0 | 0.00 | 0.56 | 0.56 | 99 | 1010.2 |
| 20260509163958 | 8 | 206 | 0.0 | 0.0 | 0.00 | 0.56 | 0.56 | 99 | 1010.2 |
| 20260509163456 | 8 | 206 | 0.0 | 1.6 | 0.13 | 0.56 | 0.56 | 99 | 1010.7 |
| 20260509162955 | 8 | 206 | 1.6 | 1.6 | 0.13 | 0.56 | 0.56 | 99 | 1010.4 |
| 20260509162454 | 8 | 206 | 1.6 | 1.6 | 0.00 | 0.53 | 0.53 | 99 | 1010.3 |
| 20260509161949 | 8 | 206 | 1.6 | 1.6 | 0.00 | 0.53 | 0.53 | 99 | 1010.6 |
| 20260509161446 | 9 | 205 | 0.0 | 0.0 | 0.18 | 0.53 | 0.53 | 99 | 1010.7 |
| 20260509160941 | 8 | 203 | 0.0 | 0.0 | 0.18 | 0.53 | 0.53 | 99 | 1010.8 |
| 20260509160438 | 8 | 203 | 0.0 | 0.0 | 0.00 | 0.51 | 0.51 | 99 | 1010.5 |
| 20260509155933 | 8 | 203 | 1.6 | 3.2 | 0.13 | 0.51 | 0.51 | 99 | 1010.9 |
| 20260509155430 | 9 | 203 | 1.6 | 1.6 | 0.30 | 0.51 | 0.51 | 99 | 1010.9 |
| 20260509154926 | 8 | 203 | 0.0 | 1.6 | 0.30 | 0.48 | 0.48 | 99 | 1010.9 |
| 20260509154422 | 8 | 203 | 0.0 | 1.6 | 0.30 | 0.46 | 0.46 | 99 | 1011.0 |
| 20260509153920 | 8 | 202 | 1.6 | 1.6 | 0.30 | 0.43 | 0.43 | 99 | 1011.2 |
| 20260509153417 | 8 | 203 | 0.0 | 0.0 | 0.30 | 0.41 | 0.41 | 99 | 1011.1 |
| 20260509152914 | 8 | 202 | 0.0 | 0.0 | 0.36 | 0.38 | 0.38 | 99 | 1011.3 |
| 20260509152409 | 8 | 202 | 1.6 | 1.6 | 0.18 | 0.36 | 0.36 | 99 | 1011.3 |
| 20260509151907 | 8 | 202 | 0.0 | 0.0 | 0.13 | 0.33 | 0.33 | 99 | 1011.1 |
| 20260509151402 | 8 | 202 | 1.6 | 1.6 | 0.30 | 0.33 | 0.33 | 99 | 1011.5 |
| 20260509150901 | 8 | 203 | 0.0 | 0.0 | 0.18 | 0.30 | 0.30 | 99 | 1011.2 |
| 20260509150358 | 8 | 202 | 0.0 | 0.0 | 0.13 | 0.28 | 0.28 | 99 | 1011.2 |
| 20260509145856 | 8 | 202 | 0.0 | 0.0 | 0.30 | 0.28 | 0.28 | 99 | 1011.2 |
| 20260509145350 | 8 | 202 | 0.0 | 0.0 | 0.30 | 0.25 | 0.25 | 99 | 1011.1 |
| 20260509144847 | 8 | 202 | 0.0 | 0.0 | 0.13 | 0.23 | 0.23 | 99 | 1011.1 |
| 20260509144344 | 8 | 202 | 0.0 | 0.0 | 0.18 | 0.20 | 0.20 | 99 | 1011.2 |
| 20260509143841 | 8 | 202 | 0.0 | 0.0 | 0.18 | 0.20 | 0.20 | 99 | 1011.2 |
| 20260509143338 | 8 | 202 | 0.0 | 0.0 | 0.00 | 0.18 | 0.18 | 99 | 1011.2 |
| 20260509142834 | 8 | 202 | 0.0 | 0.0 | 0.13 | 0.18 | 0.18 | 99 | 1011.3 |
| 20260509142331 | 8 | 202 | 0.0 | 0.0 | 0.18 | 0.15 | 0.15 | 99 | 1011.4 |
| 20260509141826 | 8 | 202 | 0.0 | 0.0 | 0.18 | 0.15 | 0.15 | 99 | 1011.1 |
| 20260509141328 | 7 | 202 | 0.0 | 0.0 | 0.13 | 0.13 | 0.13 | 99 | 1011.2 |
| 20260509140820 | 7 | 202 | 0.0 | 0.0 | 0.30 | 0.13 | 0.13 | 99 | 1011.3 |
| 20260509140317 | 7 | 202 | 0.0 | 0.0 | 0.30 | 0.10 | 0.10 | 99 | 1011.3 |
| 20260509135815 | 7 | 202 | 0.0 | 0.0 | 0.13 | 0.08 | 0.08 | 99 | 1011.2 |
| 20260509135312 | 7 | 202 | 0.0 | 0.0 | 0.00 | 0.05 | 0.05 | 99 | 1011.3 |
| 20260509134809 | 6 | 202 | 0.0 | 0.0 | 0.18 | 0.05 | 0.05 | 99 | 1011.1 |
| 20260509134307 | 6 | 202 | 0.0 | 0.0 | 0.18 | 0.05 | 0.05 | 99 | 1011.3 |
| 20260509133804 | 6 | 202 | 0.0 | 0.0 | 0.00 | 0.03 | 0.03 | 99 | 1011.2 |
| 20260509133300 | 6 | 202 | 0.0 | 0.0 | 0.00 | 0.03 | 0.03 | 99 | 1011.3 |
| 20260509132759 | 6 | 202 | 0.0 | 0.0 | 0.00 | 0.03 | 0.03 | 99 | 1011.2 |
| 20260509132257 | 6 | 202 | 0.0 | 0.0 | 0.18 | 0.03 | 0.03 | 99 | 1011.5 |
| 20260509131753 | 6 | 202 | 0.0 | 0.0 | 0.18 | 0.03 | 0.03 | 98 | 1011.3 |
| 20260509131250 | 5 | 202 | 0.0 | 0.0 | 0.00 | 0.00 | 0.00 | 98 | 1011.3 |
| 20260509130746 | 6 | 202 | 0.0 | 1.6 | 0.00 | 0.00 | 0.00 | 99 | 1011.3 |
| 20260509130242 | 6 | 202 | 0.0 | 0.0 | 0.00 | 0.00 | 0.00 | 99 | 1011.4 |
| 20260509125739 | 6 | 202 | 0.0 | 0.0 | 0.00 | 0.00 | 0.00 | 99 | 1011.5 |
| 20260509125236 | 5 | 202 | 0.0 | 0.0 | 0.00 | 0.00 | 0.00 | 99 | 1011.6 |
| 20260509124732 | 5 | 202 | 0.0 | 0.0 | 0.00 | 0.00 | 0.00 | 99 | 1011.5 |
| 20260509124229 | 5 | 202 | 0.0 | 0.0 | 0.00 | 0.00 | 0.00 | 99 | 1011.4 |
| 20260509123727 | 5 | 202 | 0.0 | 0.0 | 0.00 | 0.00 | 0.00 | 99 | 1011.5 |
| 20260509123224 | 5 | 201 | 0.0 | 0.0 | 0.00 | 0.00 | 0.00 | 99 | 1011.4 |
| 20260509122720 | 4 | 201 | 0.0 | 0.0 | 0.00 | 0.00 | 0.00 | 99 | 1011.4 |
| 20260509122217 | 4 | 201 | 0.0 | 0.0 | 0.00 | 0.00 | 0.00 | 98 | 1011.6 |
| 20260509121713 | 4 | 202 | 0.0 | 0.0 | 0.00 | 0.00 | 0.00 | 99 | 1011.8 |
| 20260509121211 | 4 | 202 | 0.0 | 0.0 | 0.00 | 0.00 | 0.00 | 99 | 1011.6 |
| 20260509120709 | 4 | 202 | 0.0 | 0.0 | 0.00 | 0.00 | 0.00 | 99 | 1011.8 |
| 20260509120207 | 4 | 201 | 0.0 | 0.0 | 0.00 | 0.00 | 0.00 | 99 | 1011.8 |
| 20260509115704 | 3 | 201 | 0.0 | 0.0 | 0.00 | 0.00 | 0.00 | 99 | 1011.9 |
| 20260509115201 | 3 | 202 | 0.0 | 0.0 | 0.00 | 0.00 | 0.00 | 99 | 1011.7 |
| 20260509114700 | 3 | 201 | 0.0 | 0.0 | 0.00 | 0.00 | 0.00 | 99 | 1011.7 |
| 20260509114158 | 3 | 201 | 0.0 | 0.0 | 0.00 | 0.00 | 0.00 | 99 | 1011.8 |
| 20260509113656 | 3 | 202 | 0.0 | 1.6 | 0.00 | 0.00 | 0.00 | 99 | 1011.8 |
| 20260509113153 | 2 | 202 | 0.0 | 0.0 | 0.00 | 0.00 | 0.00 | 99 | 1011.7 |
| 20260509112649 | 2 | 202 | 0.0 | 0.0 | 0.00 | 0.00 | 0.00 | 99 | 1011.9 |
| 20260509112147 | 2 | 202 | 0.0 | 0.0 | 0.00 | 0.00 | 0.00 | 99 | 1011.7 |
| 20260509111644 | 2 | 202 | 0.0 | 0.0 | 0.00 | 0.00 | 0.00 | 99 | 1011.7 |
| 20260509111140 | 1 | 202 | 0.0 | 1.6 | 0.00 | 0.00 | 0.00 | 99 | 1011.7 |
| 20260509110638 | 1 | 201 | 0.0 | 0.0 | 0.00 | 0.00 | 0.00 | 99 | 1011.8 |
| 20260509110135 | 1 | 201 | 0.0 | 0.0 | 0.00 | 0.00 | 0.00 | 99 | 1011.8 |
| 20260509105633 | 0 | 201 | 0.0 | 1.6 | 0.00 | 0.00 | 0.00 | 99 | 1012.1 |
| 20260509105130 | 0 | 201 | 0.0 | 0.0 | 0.00 | 0.00 | 0.00 | 99 | 1012.1 |
| 20260509104627 | 0 | 201 | 0.0 | 0.0 | 0.00 | 0.00 | 0.00 | 99 | 1012.1 |
| 20260509104123 | 0 | 201 | 0.0 | 0.0 | 0.00 | 0.00 | 0.00 | 99 | 1012.3 |
| 20260509103622 | 0 | 201 | 0.0 | 0.0 | 0.00 | 0.00 | 0.00 | 99 | 1012.1 |
| 20260509103119 | 0 | 201 | 0.0 | 0.0 | 0.00 | 0.00 | 0.00 | 99 | 1012.1 |
| 20260509102616 | 0 | 201 | 0.0 | 0.0 | 0.00 | 0.00 | 0.00 | 99 | 1012.3 |
| 20260509102113 | 0 | 201 | 0.0 | 0.0 | 0.00 | 0.00 | 0.00 | 99 | 1012.1 |
| 20260509101609 | 0 | 201 | 0.0 | 0.0 | 0.00 | 0.00 | 0.00 | 99 | 1012.1 |
| 20260509101106 | 0 | 201 | 0.0 | 0.0 | 0.00 | 0.00 | 0.00 | 99 | 1012.1 |